Helicity
34 45 -9 -17 19 102 264 453 429 362 310 274 264 325 449 456 540 490 759 668 471 389 357 405 439 479 374 184 306 111 154 88 109 75 70 100 119 62 126 132 130 92 145 153 131 155 147 133 112 145 164 127 113 108
1 -3 -9 -4 21 132 375 518 465 420 432 448 488 439 370 384 372 503 793 662 394 529 489 495 405 221 150 11 50 6 112 80 96 86 111 105 108 125 77 131 116 162 173 200 180 181 96 106 193 224 161 131 118 90
-33 -32 -54 19 32 136 281 397 494 573 494 439 393 429 493 466 482 482 467 347 429 497 608 419 239 101 204 152 101 77 136 139 152 232 145 123 95 65 93 122 158 121 94 127 71 93 86 141 213 223 153 123 90 69
13 -34 -10 23 56 157 243 402 428 405 457 390 372 257 295 183 307 343 310 85 225 512 614 360 168 200 151 112 120 111 95 106 106 112 98 95 93 103 105 95 119 100 72 77 107 123 102 107 111 114 121 89 73 62
17 52 77 -11 25 149 210 239 388 519 483 396 434 353 259 130 52 74 117 227 165 123 376 243 145 230 162 111 92 75 80 81 94 111 89 85 67 60 80 80 89 104 95 50 53 86 75 91 77 66 71 61 50 43
9 82 190 50 78 205 214 278 296 439 411 342 202 114 114 122 167 196 331 230 58 343 365 272 179 139 133 120 127 135 141 149 139 96 89 75 65 55 56 79 51 50 68 58 47 131 127 112 71 43 37 30 34 21
64 12 105 122 141 233 251 266 199 153 145 149 141 104 110 97 131 114 140 132 220 218 397 241 162 165 113 115 120 121 115 144 105 72 63 31 43 36 35 60 62 52 73 101 105 114 116 57 40 16 35 29 28 40
45 63 160 144 128 120 112 119 131 152 182 182 105 57 36 25 68 261 356 220 144 135 250 190 131 127 140 101 111 129 96 81 107 66 38 31 28 39 48 61 64 83 90 77 36 30 60 45 55 43 24 20 23 29
29 96 118 109 111 128 156 191 232 200 161 153 181 195 214 214 203 249 246 253 117 96 101 94 97 100 125 102 98 97 106 95 69 55 40 24 47 56 53 56 77 77 42 43 60 62 58 47 49 38 21 21 28 34
49 127 134 111 120 145 138 169 163 178 183 175 176 162 174 200 216 251 186 176 126 118 127 140 111 122 66 96 120 100 91 80 69 62 39 40 66 40 50 60 84 54 65 61 70 48 36 48 45 43 34 35 39 34
61 143 158 163 137 166 126 141 129 127 109 140 159 195 154 240 213 155 126 130 81 97 98 132 53 110 94 82 88 80 63 47 57 50 41 41 47 58 68 79 63 39 46 39 38 34 29 38 45 47 47 52 54 52
59 62 74 89 111 125 111 108 112 123 101 113 130 161 144 135 139 121 147 125 101 99 107 91 89 76 124 108 73 42 45 27 58 26 38 48 64 56 48 52 44 41 52 54 54 57 47 55 54 52 59 61 56 54
55 88 96 107 107 126 118 144 156 139 249 195 186 188 168 118 125 138 124 112 55 99 114 81 100 97 80 67 54 42 35 43 8 33 36 32 36 20 28 46 71 73 76 72 76 66 71 75 79 77 92 79 68 66
89 89 103 119 124 151 172 164 131 149 193 197 212 188 164 125 102 116 85 62 98 80 80 73 137 90 74 64 36 35 31 22 34 34 37 6 22 51 74 101 113 136 147 135 137 141 136 124 127 105 84 77 81 80
55 82 119 148 150 154 165 167 179 118 155 160 170 147 105 85 80 81 93 97 113 113 102 108 94 73 73 42 27 32 37 38 22 31 -11 1 37 62 71 70 76 92 93 91 89 99 105 100 101 108 94 94 95 89
59 108 139 120 117 131 174 142 149 122 151 124 114 61 73 56 97 107 95 199 188 149 140 113 101 70 51 31 35 32 35 38 33 -8 -15 13 31 56 60 69 84 88 86 88 89 100 97 94 95 102 100 96 89 92
60 114 132 138 151 154 132 123 137 100 94 112 83 139 131 116 120 137 107 169 218 141 136 112 85 70 41 34 41 26 38 22 -0 -7 9 14 29 47 69 89 100 98 91 91 99 92 100 100 106 101 100 93 93 104
43 73 104 143 173 155 194 134 89 99 151 158 111 155 135 150 113 119 171 193 155 114 107 87 49 55 42 42 38 26 24 7 16 30 27 26 55 67 73 95 107 105 98 93 97 106 105 99 97 96 105 109 106 109
27 69 102 144 123 157 178 151 165 145 149 133 106 120 128 101 100 79 97 138 141 117 88 69 55 53 48 39 30 25 18 9 22 30 44 52 59 78 99 110 115 105 99 96 98 96 98 87 96 107 116 116 109 124
35 91 130 157 124 134 171 156 170 131 121 112 127 117 104 112 87 73 62 81 94 103 77 64 55 53 35 29 28 20 21 27 35 38 48 59 65 87 90 92 90 100 103 111 107 109 111 108 112 123 130 139 134 141
49 104 124 127 161 121 143 149 146 129 109 81 89 91 98 92 103 98 68 66 80 72 52 60 53 42 32 22 27 29 29 20 27 31 39 55 64 80 91 100 99 89 102 106 108 113 110 112 118 146 157 163 176 178
42 80 80 116 121 102 111 140 123 121 109 114 122 126 117 114 94 85 88 79 63 60 72 62 46 22 15 17 23 34 46 64 69 84 95 83 66 78 87 90 87 94 100 106 107 119 114 152 181 170 167 173 154 156
50 47 68 91 71 77 108 175 112 131 110 100 103 109 100 99 84 70 62 45 32 40 54 44 38 42 31 35 44 47 45 48 52 55 42 48 68 84 93 84 92 100 117 121 137 134 173 198 172 171 166 141 138 134
19 25 51 56 62 69 78 96 88 72 67 80 71 74 80 79 67 67 71 61 31 18 17 8 4 12 25 27 33 48 60 67 64 60 56 59 77 87 92 98 113 120 129 154 177 198 174 175 160 150 153 148 149 147
30 47 40 65 54 59 70 76 84 81 80 76 73 69 64 67 78 70 63 57 45 36 32 36 39 39 42 49 45 54 57 57 59 67 64 77 103 108 126 148 166 192 199 196 183 165 167 152 165 159 150 145 144 157
60 55 57 63 68 76 73 78 81 82 73 74 74 72 65 88 94 83 56 49 53 49 61 80 66 51 53 51 47 53 68 70 71 86 90 97 91 99 116 140 156 167 160 158 157 159 158 161 165 171 171 172 164 152
55 55 39 33 47 51 59 60 59 60 65 63 54 58 79 117 102 52 39 52 49 53 61 67 83 75 55 63 85 96 112 125 124 135 169 199 215 195 138 118 141 175 160 165 160 151 152 155 148 148 155 156 166 176
40 33 50 37 41 40 48 49 49 57 57 57 58 77 109 114 79 63 80 82 73 61 58 61 71 71 69 71 75 87 111 123 139 140 157 186 195 201 219 235 235 228 194 184 177 161 150 144 135 133 150 165 172 168
39 39 39 43 48 43 41 45 52 58 55 48 63 68 65 71 68 75 74 69 58 46 36 36 53 64 73 78 81 81 83 77 79 82 99 126 144 170 173 177 181 183 186 202 221 184 165 154 159 159 163 164 161 154
24 20 25 29 35 42 45 51 43 40 60 72 61 30 13 25 27 32 40 36 22 26 39 46 53 61 74 77 89 115 136 135 150 106 91 108 149 157 152 156 155 146 144 150 148 151 157 157 159 150 148 139 133 136
14 10 6 -5 -8 5 31 41 43 37 30 35 53 31 21 22 -12 13 47 59 49 45 44 53 72 92 103 101 92 113 138 158 163 166 175 177 153 153 151 144 130 122 106 98 96 105 113 126 134 140 145 148 142 130
7 7 1 -3 -21 -39 -41 -30 -22 -15 -16 -25 -29 -9 -17 -21 -19 -11 59 88 70 75 114 122 123 144 176 212 220 222 221 177 157 144 150 149 158 153 140 121 99 89 94 103 108 110 118 126 127 131 132 137 131 120
-4 -15 -12 -20 -28 -24 -21 -10 -8 -11 -22 -7 24 55 55 99 100 91 97 150 191 243 213 246 243 214 216 222 229 234 239 232 224 205 197 176 155 130 104 85 81 90 103 108 115 120 131 136 131 131 127 115 104 96
Wind_Speed
75 73 61 55 42 28 22 5 17 26 39 53 65 81 104 105 88 84 74 66 70 55 45 41 49 40 37 32 33 15 19 27 27 31 30 27 34 32 34 29 18 16 25 28 27 36 38 30 17 22 29 21 20 18
71 55 50 49 26 38 25 13 28 39 50 62 73 80 81 79 74 65 61 48 39 44 44 28 22 26 32 20 18 20 29 17 24 28 31 30 35 28 25 30 23 27 30 33 35 34 27 28 26 25 25 17 16 15
69 57 58 50 57 44 34 27 32 44 48 53 60 64 63 62 57 51 49 44 34 31 22 21 23 16 14 10 13 22 27 27 30 34 29 32 31 22 21 26 20 26 26 29 24 26 23 23 23 20 19 16 14 14
37 44 50 48 56 33 36 35 41 45 48 49 55 53 52 51 52 49 44 31 29 24 24 19 10 15 12 12 19 26 18 28 24 26 28 27 25 26 21 24 25 26 20 22 26 20 19 21 17 14 12 13 13 16
35 36 24 42 48 43 33 36 42 41 42 43 42 39 42 44 40 33 23 28 20 13 20 16 9 5 5 4 4 10 15 16 16 22 24 20 22 19 22 23 24 20 21 20 24 13 22 10 13 10 10 14 15 15
34 36 27 34 44 41 39 38 40 36 35 34 34 38 37 37 36 29 22 7 10 29 19 23 11 7 5 5 7 11 15 19 23 18 18 21 20 23 17 22 22 20 23 21 17 15 15 8 9 11 11 13 15 17
32 35 35 34 40 43 43 39 36 33 31 31 33 30 28 26 26 27 29 14 15 6 16 18 20 24 15 13 12 14 18 20 19 17 19 18 15 18 19 22 17 20 22 25 20 9 11 7 11 9 11 14 16 17
32 38 37 39 38 37 36 35 33 32 32 33 32 30 26 25 16 14 14 15 19 7 17 22 19 22 34 22 21 26 19 18 23 20 17 16 18 19 21 18 19 19 23 28 18 22 9 11 13 11 12 14 15 17
30 37 37 36 35 35 33 33 32 31 29 26 22 18 13 10 15 19 25 22 10 18 21 24 15 24 33 19 17 20 23 18 20 18 18 17 19 20 17 15 15 17 18 22 15 7 7 11 12 12 13 15 16 16
29 31 32 33 32 30 28 26 25 23 22 20 20 17 19 21 30 32 20 21 22 24 23 18 23 27 19 17 20 16 20 15 16 18 19 19 19 21 17 13 12 12 18 23 20 6 9 7 8 11 14 16 14 15
28 28 27 27 27 26 22 22 23 25 21 21 19 20 19 32 21 19 20 22 22 22 26 29 15 12 17 13 9 21 17 18 18 19 19 20 20 14 15 12 12 16 17 18 13 13 11 10 9 11 14 12 15 17
25 24 22 22 23 19 15 18 25 22 21 16 16 19 19 19 19 20 25 25 23 24 25 18 10 7 12 18 17 19 20 22 23 20 22 25 22 19 15 13 15 17 10 11 13 12 13 10 9 10 11 13 14 16
25 21 19 20 19 15 10 12 14 22 31 21 19 21 26 24 25 30 30 25 23 30 28 16 8 12 13 18 18 21 22 24 23 22 24 26 23 22 18 15 16 13 8 11 13 12 10 9 10 9 10 12 13 16
20 18 16 15 15 11 11 13 20 28 21 22 23 21 24 27 26 25 18 17 27 17 14 9 8 15 15 18 21 23 24 22 24 24 24 23 23 20 18 16 16 11 10 11 12 10 10 9 9 10 11 12 14 17
15 13 10 9 10 9 10 13 15 18 19 19 21 24 23 21 18 18 20 17 15 12 9 4 12 14 16 20 22 24 22 23 22 23 24 23 22 23 23 21 16 12 11 11 10 10 9 8 8 9 12 15 17 19
11 10 8 9 13 17 19 17 16 20 22 22 20 16 17 7 9 12 13 14 19 13 12 14 14 17 20 21 22 24 22 25 24 24 22 20 22 23 21 18 16 14 12 11 10 9 7 7 9 11 14 17 18 20
6 18 16 15 18 17 15 21 19 18 20 21 18 17 12 10 12 13 14 18 24 17 15 16 18 20 19 23 23 24 24 26 25 23 19 17 21 20 15 19 18 16 13 12 10 7 7 10 12 14 15 16 19 22
5 8 10 16 22 16 17 18 19 17 14 15 14 14 12 12 11 15 18 18 20 17 20 20 19 20 23 23 23 24 24 25 25 21 17 15 12 10 16 18 18 16 14 12 9 8 9 11 13 16 18 18 22 26
5 7 10 14 20 21 20 18 20 15 13 15 15 14 13 11 12 17 18 21 21 21 18 21 22 23 25 26 26 24 23 22 20 18 15 11 9 11 16 17 17 16 14 11 9 9 10 11 17 18 20 21 26 29
8 10 13 15 20 19 18 19 21 17 18 18 18 16 15 16 18 18 20 23 23 23 21 23 24 24 26 27 28 27 23 21 19 16 12 13 13 12 15 15 16 16 14 11 11 12 13 15 19 21 24 27 29 31
12 15 15 16 16 14 19 22 18 20 20 18 19 17 17 17 18 20 23 26 25 24 22 22 20 23 27 29 28 26 23 19 18 18 11 10 10 13 14 17 16 15 14 11 12 13 15 18 19 23 26 28 34 37
16 17 16 16 17 19 18 21 20 23 21 21 21 21 19 18 21 24 26 25 23 24 25 23 20 20 23 27 28 26 21 21 22 22 19 13 12 14 15 15 14 15 14 13 14 15 16 21 24 26 26 30 32 38
20 19 17 18 18 19 21 27 22 24 22 24 26 24 24 24 26 28 24 25 24 25 26 23 22 23 22 24 26 25 23 22 22 22 20 22 20 19 17 16 16 15 17 17 18 18 21 23 25 26 29 30 34 38
21 21 22 22 21 20 24 24 25 25 27 28 28 28 28 28 30 27 26 23 24 24 21 19 19 20 23 25 26 26 25 24 21 21 23 22 22 21 20 19 19 20 20 19 21 23 24 24 25 27 31 34 37 40
26 26 25 23 25 23 24 25 26 26 27 28 29 31 30 27 29 28 26 21 20 20 20 20 21 25 25 27 27 26 25 24 22 22 24 24 22 21 22 23 23 25 24 23 24 23 24 24 28 30 32 35 38 42
27 29 28 26 26 27 27 27 27 27 26 27 28 27 25 27 30 31 23 20 19 20 22 25 26 27 29 30 27 26 25 26 23 24 26 23 23 22 22 23 25 27 27 25 23 24 25 26 28 30 35 37 40 43
28 27 25 25 24 25 26 25 24 26 27 29 25 24 24 30 30 26 21 23 23 26 28 28 30 32 30 27 27 26 26 28 26 23 25 28 31 31 27 25 27 26 25 26 26 25 26 27 28 31 35 39 42 45
27 25 27 24 25 25 26 27 26 26 27 26 25 27 29 30 28 26 24 23 24 25 25 26 29 30 28 27 24 23 24 23 23 23 25 29 32 32 32 31 30 28 29 29 29 29 28 28 30 32 36 40 43 44
28 27 25 26 26 26 27 27 28 27 28 26 26 26 25 26 26 25 24 25 27 27 27 27 27 27 28 28 28 27 22 21 21 22 26 28 28 30 28 27 28 29 30 31 33 32 32 33 34 36 37 39 41 42
32 30 28 27 26 27 28 31 32 33 33 32 32 32 32 32 33 35 36 37 36 35 34 33 29 28 28 28 28 28 30 31 34 31 28 27 27 21 22 25 26 27 28 29 30 32 34 37 38 39 40 41 43 45
33 39 40 41 41 36 37 36 36 36 39 42 44 48 47 44 44 44 44 43 43 41 37 35 33 32 30 29 27 26 27 30 31 31 28 25 22 22 23 24 25 26 27 28 30 33 34 37 40 41 43 44 45 46
41 41 38 38 37 36 35 37 40 45 47 48 50 50 52 53 53 46 45 47 45 43 40 38 33 31 30 30 29 30 23 22 25 25 25 24 23 23 24 25 25 27 28 31 33 34 36 39 40 41 43 45 46 47
38 39 38 35 32 29 25 27 28 37 40 45 47 48 50 49 49 43 39 40 41 42 33 32 30 28 26 24 22 21 22 23 24 25 25 24 24 24 25 26 27 29 31 33 34 36 38 39 41 43 44 45 46 47
Wind_Direction
218 217 221 231 244 254 223 226 57 71 90 105 116 128 140 157 174 185 196 208 209 225 224 219 223 209 233 228 240 218 242 254 248 253 260 273 281 281 291 309 321 326 327 326 323 318 307 342 335 299 288 291 294 319
189 206 209 207 215 191 179 130 97 99 103 109 117 125 139 155 171 174 184 201 204 218 218 217 226 243 257 216 241 188 259 207 251 253 268 277 279 294 300 305 323 324 330 333 334 332 351 341 322 296 284 292 298 315
180 192 188 196 188 179 167 144 116 111 113 119 126 136 146 155 168 178 183 193 189 174 194 216 223 243 266 243 239 234 246 251 253 257 267 278 286 308 311 325 344 341 353 345 347 355 2 343 316 303 284 291 308 328
185 188 182 184 180 166 161 147 140 120 120 122 126 141 153 158 172 171 177 174 174 192 190 221 238 248 265 254 256 252 237 250 252 260 277 290 304 317 334 347 348 357 11 4 0 20 20 340 321 306 298 303 311 319
174 168 158 166 167 164 148 138 140 136 137 140 142 139 138 138 141 147 172 206 202 223 185 156 110 283 259 245 233 234 235 243 255 272 288 304 332 350 351 359 359 20 10 5 359 61 342 337 314 321 314 305 314 321
155 160 136 131 149 152 146 139 146 140 133 134 137 122 134 144 145 146 174 175 121 117 161 215 230 224 219 218 230 240 251 260 270 291 308 328 344 351 8 357 27 37 30 34 42 1 344 339 358 344 334 327 327 332
145 140 146 131 132 130 134 135 136 136 130 128 129 138 146 157 190 209 210 190 199 153 208 213 226 230 230 241 248 258 265 272 289 315 328 356 15 20 16 1 48 51 44 60 62 9 332 1 312 13 0 349 343 341
147 155 144 132 130 129 129 129 128 128 123 122 120 115 111 103 119 152 186 208 230 218 235 229 228 218 228 236 253 254 274 289 300 326 356 17 26 29 10 42 62 59 62 80 69 292 19 46 56 28 6 353 346 346
132 149 150 141 137 130 130 133 133 136 140 142 141 146 162 194 199 194 207 214 253 248 238 236 177 226 227 245 258 272 281 307 321 343 2 21 18 7 27 82 76 84 77 90 45 322 32 54 48 32 352 333 335 346
120 139 149 147 145 142 143 143 147 154 167 172 185 197 209 202 195 203 219 233 244 240 239 212 227 222 223 242 267 293 300 338 349 360 20 15 14 31 54 70 71 69 77 96 93 306 306 353 1 1 342 330 340 342
119 124 134 146 153 156 161 171 179 189 192 204 212 207 187 199 217 239 240 242 246 240 230 225 211 190 238 265 289 301 332 345 355 11 13 15 11 56 66 53 61 80 86 79 326 298 318 343 336 331 327 1 26 37
118 117 128 138 153 160 171 192 200 201 210 213 169 185 207 240 248 249 238 239 244 235 221 204 184 210 261 270 310 324 342 355 356 37 17 8 29 81 86 69 80 89 66 5 354 331 319 2 2 5 24 37 23 14
99 111 123 139 148 146 139 149 168 186 194 196 209 228 234 248 242 235 231 238 235 221 217 201 186 258 276 302 325 341 351 355 38 19 15 22 72 89 96 85 81 68 8 338 353 355 344 346 0 14 14 2 18 16
100 105 111 131 149 166 187 209 214 213 222 226 235 237 246 246 250 247 242 232 227 201 150 151 246 274 295 321 338 348 359 28 14 12 25 57 83 86 87 85 83 45 360 350 349 359 1 359 2 5 13 15 14 14
115 113 131 159 187 208 224 233 232 228 234 243 249 245 260 256 251 235 226 213 179 160 178 217 285 296 318 336 344 359 6 13 24 28 46 64 85 92 91 89 80 53 18 3 11 12 17 29 20 3 350 0 5 16
121 157 183 201 214 220 224 227 236 233 236 243 254 250 242 246 232 218 196 182 208 216 242 276 302 312 322 345 347 357 16 16 31 44 57 66 89 94 89 78 66 53 33 29 10 22 22 4 8 14 11 12 20 17
188 203 222 227 222 227 244 227 238 241 244 245 243 242 239 239 227 213 195 213 224 242 266 291 311 321 341 341 356 16 18 32 54 57 42 65 94 91 68 68 60 51 46 38 37 29 12 10 17 15 8 13 9 3
75 224 242 231 220 229 226 237 237 247 236 237 234 239 251 249 223 212 220 235 249 263 274 299 315 329 341 353 7 28 47 52 39 34 34 60 54 40 63 62 52 44 41 39 40 39 27 23 12 4 3 5 357 353
343 269 258 240 224 223 228 240 238 240 238 233 233 241 248 255 245 230 236 244 253 264 287 302 325 336 349 5 21 36 51 54 52 35 28 356 356 31 48 42 37 29 32 38 42 17 13 14 357 358 357 356 349 349
318 320 279 262 239 238 240 242 237 244 244 242 244 253 254 254 248 249 251 259 268 281 305 317 332 348 3 20 27 39 48 41 46 41 26 324 324 19 28 32 19 24 24 22 9 4 4 358 352 354 352 350 349 349
272 272 271 254 246 264 249 250 253 242 243 249 251 257 260 264 264 263 265 269 278 293 317 331 356 14 20 23 14 12 21 28 11 349 350 344 359 5 16 7 17 21 16 18 6 358 356 352 352 350 349 349 349 348
259 259 254 260 252 257 265 260 251 249 254 248 254 258 266 274 275 276 274 279 292 300 310 332 354 15 19 16 1 355 4 352 344 325 324 354 358 354 359 5 14 5 9 8 2 356 354 351 352 353 354 351 352 350
246 258 259 267 268 267 257 246 255 258 259 259 260 270 276 281 285 280 292 295 303 307 310 331 348 350 2 353 353 353 353 346 341 332 323 324 335 347 357 1 6 6 354 0 0 358 353 356 354 354 354 353 351 351
266 268 271 272 279 274 259 266 264 269 268 268 271 275 280 286 290 295 298 312 317 316 330 348 352 7 355 346 344 341 340 339 347 343 325 330 334 346 353 356 357 356 357 360 357 355 352 353 355 353 351 350 349 348
274 284 280 288 281 282 277 276 279 282 282 279 277 280 286 300 296 301 308 323 327 331 336 332 336 333 335 335 336 337 334 336 339 337 333 336 345 352 352 353 353 351 355 354 351 353 353 354 352 352 351 351 349 350
292 293 292 290 291 291 290 285 288 292 294 294 294 302 310 300 299 303 318 329 331 329 323 316 316 319 322 326 333 334 333 331 335 335 338 345 346 345 344 344 343 347 351 353 355 353 353 354 354 355 352 353 353 352
291 299 310 312 313 314 312 315 313 308 305 302 312 314 311 298 303 323 327 319 316 308 304 304 306 311 321 329 330 333 336 332 336 346 347 346 345 345 348 345 342 355 360 358 357 357 356 357 359 357 355 356 357 355
309 315 310 318 322 333 323 323 321 315 318 325 324 310 307 310 317 321 313 306 309 309 309 306 305 315 331 339 347 350 347 355 2 7 6 358 353 354 357 2 6 10 7 3 2 3 4 4 2 1 358 357 357 1
313 313 318 317 316 318 322 323 324 324 320 320 318 318 321 319 319 316 308 298 294 296 300 303 311 327 338 343 345 346 357 354 344 340 337 340 343 351 3 9 10 10 10 9 8 9 10 9 7 6 6 5 5 6
288 286 300 304 307 308 313 311 315 315 308 305 304 305 302 298 293 283 277 276 279 286 294 299 309 321 330 335 339 342 338 334 330 331 334 338 345 5 8 10 11 13 14 13 14 15 15 12 11 10 7 6 4 3
248 228 226 229 238 271 287 300 303 301 293 286 281 269 265 272 271 270 274 281 283 287 293 301 308 316 323 325 331 337 335 334 335 343 356 8 18 16 15 15 16 17 18 17 14 11 10 9 6 5 5 5 5 4
190 186 190 190 193 203 202 213 231 244 256 246 244 250 252 254 262 276 281 279 282 286 293 299 308 315 322 326 332 335 349 352 354 4 15 20 22 24 25 24 24 22 20 17 15 14 13 8 8 8 7 6 6 6
211 205 207 204 184 173 145 166 179 228 231 244 264 271 268 274 278 288 302 302 297 299 306 309 315 322 328 334 341 350 356 1 8 15 20 27 31 32 30 26 25 25 22 19 18 17 13 13 11 10 9 9 9 9